Torna al catalogo

SL-14 DEB

AttivoPO
NORAD 26021·DEBRIS·🇷🇺 Russia

Lanciato Sep 28, 1991 da Plesetsk Cosmodrome

Loading…

Prossimi Passaggi (prossime 24 ore)

TLE

AggiornatoSource: Space-Track

Epoca: Sep 13, 2026, 17:41 UTC

1 26021U 91068AG  26256.73730951  .00000676  00000-0  21281-2 0  9996
2 26021  81.7783 339.1261 0221653 239.4626 248.0937 12.95071894638010

Traccia SL-14 DEB in tempo reale con AllMySat

Download on the App Store